Time,TemperatureF,DewpointF,PressureIn,WindDirection,WindDirectionDegrees,WindSpeedMPH,WindSpeedGustMPH,Humidity,HourlyPrecipIn,Conditions,Clouds,dailyrainin,SolarRadiationWatts/m^2,SoftwareType,DateUTC
2013-08-31 00:03:00,52.0,51.0,-100.00,WSW,249,0.0,2.0,96,0.00,,,0.01,0.000000,,2013-08-31 08:03:00,
2013-08-31 00:12:00,52.0,51.0,-100.00,WSW,249,0.0,2.0,96,0.00,,,0.01,0.000000,,2013-08-31 08:12:00,
2013-08-31 00:22:00,52.0,51.0,-100.00,WSW,249,0.0,2.0,96,0.00,,,0.01,0.000000,,2013-08-31 08:22:00,
2013-08-31 00:52:00,50.0,49.0,-100.00,East,85,0.0,1.0,97,0.00,,,0.01,0.000000,,2013-08-31 08:52:00,
2013-08-31 01:02:00,50.0,49.0,-100.00,East,85,0.0,1.0,97,0.00,,,0.01,0.000000,,2013-08-31 09:02:00,
2013-08-31 01:12:00,50.0,49.0,-100.00,East,85,0.0,1.0,97,0.00,,,0.01,0.000000,,2013-08-31 09:12:00,
2013-08-31 01:23:00,50.0,49.0,-100.00,East,85,0.0,1.0,97,0.00,,,0.01,0.000000,,2013-08-31 09:23:00,
2013-08-31 01:53:00,49.0,48.0,-100.00,ENE,78,1.0,3.0,97,0.00,,,0.01,0.000000,,2013-08-31 09:53:00,
2013-08-31 02:03:00,49.0,48.0,-100.00,ENE,78,1.0,3.0,97,0.00,,,0.01,0.000000,,2013-08-31 10:03:00,
2013-08-31 02:12:00,49.0,48.0,-100.00,ENE,78,1.0,3.0,97,0.00,,,0.01,0.000000,,2013-08-31 10:12:00,
2013-08-31 02:23:00,49.0,48.0,-100.00,ENE,78,1.0,3.0,97,0.00,,,0.01,0.000000,,2013-08-31 10:23:00,
2013-08-31 02:53:00,48.0,47.0,-100.00,NE,38,2.0,3.0,98,0.00,,,0.01,0.000000,,2013-08-31 10:53:00,
2013-08-31 03:02:00,48.0,47.0,-100.00,NE,38,2.0,3.0,98,0.00,,,0.01,0.000000,,2013-08-31 11:02:00,
2013-08-31 03:12:00,48.0,47.0,-100.00,NE,38,2.0,3.0,98,0.00,,,0.01,0.000000,,2013-08-31 11:12:00,
2013-08-31 03:21:00,48.0,47.0,-100.00,NE,38,2.0,3.0,98,0.00,,,0.01,0.000000,,2013-08-31 11:21:00,
2013-08-31 03:52:00,46.0,45.0,-100.00,NNE,27,1.0,3.0,98,0.00,,,0.01,0.000000,,2013-08-31 11:52:00,
2013-08-31 04:02:00,46.0,45.0,-100.00,NNE,27,1.0,3.0,98,0.00,,,0.01,0.000000,,2013-08-31 12:02:00,
2013-08-31 04:11:00,46.0,45.0,-100.00,NNE,27,1.0,3.0,98,0.00,,,0.01,0.000000,,2013-08-31 12:11:00,
2013-08-31 04:21:00,46.0,45.0,-100.00,NNE,27,1.0,3.0,98,0.00,,,0.01,0.000000,,2013-08-31 12:21:00,
2013-08-31 04:52:00,48.0,47.0,-100.00,NE,37,1.0,3.0,98,0.00,,,0.01,0.000000,,2013-08-31 12:52:00,
2013-08-31 05:01:00,48.0,47.0,-100.00,NE,37,1.0,3.0,98,0.00,,,0.01,0.000000,,2013-08-31 13:01:00,
2013-08-31 05:11:00,48.0,47.0,-100.00,NE,37,1.0,3.0,98,0.00,,,0.01,0.000000,,2013-08-31 13:11:00,
2013-08-31 05:22:00,48.0,47.0,-100.00,NE,37,1.0,3.0,98,0.00,,,0.01,0.000000,,2013-08-31 13:22:00,
2013-08-31 05:52:00,48.0,47.0,-100.00,NNE,24,1.0,3.0,98,0.00,,,0.01,0.000000,,2013-08-31 13:52:00,
2013-08-31 06:02:00,48.0,47.0,-100.00,NNE,24,1.0,3.0,98,0.00,,,0.01,0.000000,,2013-08-31 14:02:00,
2013-08-31 06:11:00,48.0,47.0,-100.00,NNE,24,1.0,3.0,98,0.00,,,0.01,0.000000,,2013-08-31 14:11:00,
2013-08-31 06:21:00,48.0,47.0,-100.00,NNE,24,1.0,3.0,98,0.00,,,0.01,0.000000,,2013-08-31 14:21:00,
2013-08-31 06:52:00,48.0,47.0,-100.00,NE,41,0.0,2.0,98,0.00,,,0.00,0.000000,,2013-08-31 14:52:00,
2013-08-31 07:01:00,48.0,47.0,-100.00,NE,41,0.0,2.0,98,0.00,,,0.00,0.000000,,2013-08-31 15:01:00,
2013-08-31 07:11:00,48.0,47.0,-100.00,NE,41,0.0,2.0,98,0.00,,,0.00,0.000000,,2013-08-31 15:11:00,
2013-08-31 07:22:00,48.0,47.0,-100.00,NE,41,0.0,2.0,98,0.00,,,0.00,0.000000,,2013-08-31 15:22:00,
2013-08-31 07:55:00,49.0,48.0,-100.00,NNE,29,1.0,2.0,98,0.00,,,0.00,1.000000,,2013-08-31 15:55:00,
2013-08-31 08:04:00,49.0,48.0,-100.00,NNE,29,1.0,2.0,98,0.00,,,0.00,1.000000,,2013-08-31 16:04:00,
2013-08-31 08:13:00,49.0,48.0,-100.00,NNE,29,1.0,2.0,98,0.00,,,0.00,1.000000,,2013-08-31 16:13:00,
2013-08-31 08:25:00,49.0,48.0,-100.00,NNE,29,1.0,2.0,98,0.00,,,0.00,1.000000,,2013-08-31 16:25:00,
2013-08-31 08:52:00,50.0,49.0,-100.00,NNE,27,2.0,4.0,96,0.00,,,0.00,19.000000,,2013-08-31 16:52:00,
2013-08-31 09:03:00,50.0,49.0,-100.00,NNE,27,2.0,4.0,96,0.00,,,0.00,19.000000,,2013-08-31 17:03:00,
2013-08-31 09:12:00,50.0,49.0,-100.00,NNE,27,2.0,4.0,96,0.00,,,0.00,19.000000,,2013-08-31 17:12:00,
2013-08-31 09:23:00,50.0,49.0,-100.00,NNE,27,2.0,4.0,96,0.00,,,0.00,19.000000,,2013-08-31 17:23:00,
2013-08-31 09:53:00,51.0,50.0,-100.00,NE,44,0.0,3.0,96,0.00,,,0.00,39.000000,,2013-08-31 17:53:00,
2013-08-31 10:02:00,51.0,50.0,-100.00,NE,44,0.0,3.0,96,0.00,,,0.00,39.000000,,2013-08-31 18:02:00,
2013-08-31 10:12:00,51.0,50.0,-100.00,NE,44,0.0,3.0,96,0.00,,,0.00,39.000000,,2013-08-31 18:12:00,
2013-08-31 10:21:00,51.0,50.0,-100.00,NE,44,0.0,3.0,96,0.00,,,0.00,39.000000,,2013-08-31 18:21:00,
2013-08-31 10:52:00,53.0,51.0,-100.00,SW,231,1.0,3.0,93,0.00,,,0.00,92.000000,,2013-08-31 18:52:00,
2013-08-31 11:01:00,53.0,51.0,-100.00,SW,231,1.0,3.0,93,0.00,,,0.00,92.000000,,2013-08-31 19:01:00,
2013-08-31 11:12:00,53.0,51.0,-100.00,SW,231,1.0,3.0,93,0.00,,,0.00,92.000000,,2013-08-31 19:12:00,
2013-08-31 11:21:00,53.0,51.0,-100.00,SW,231,1.0,3.0,93,0.00,,,0.00,92.000000,,2013-08-31 19:21:00,
2013-08-31 11:52:00,55.0,49.0,-100.00,SW,216,5.0,10.0,81,0.00,,,0.00,102.000000,,2013-08-31 19:52:00,
2013-08-31 12:02:00,55.0,49.0,-100.00,SW,216,5.0,10.0,81,0.00,,,0.00,102.000000,,2013-08-31 20:02:00,
2013-08-31 12:12:00,55.0,49.0,-100.00,SW,216,5.0,10.0,81,0.00,,,0.00,102.000000,,2013-08-31 20:12:00,
2013-08-31 12:22:00,55.0,49.0,-100.00,SW,216,5.0,10.0,81,0.00,,,0.00,102.000000,,2013-08-31 20:22:00,
2013-08-31 12:52:00,55.0,52.0,-100.00,WSW,239,4.0,9.0,89,0.00,,,0.00,119.000000,,2013-08-31 20:52:00,
2013-08-31 13:02:00,55.0,52.0,-100.00,WSW,239,4.0,9.0,89,0.00,,,0.00,119.000000,,2013-08-31 21:02:00,
2013-08-31 13:12:00,55.0,52.0,-100.00,WSW,239,4.0,9.0,89,0.00,,,0.00,119.000000,,2013-08-31 21:12:00,
2013-08-31 13:22:00,55.0,52.0,-100.00,WSW,239,4.0,9.0,89,0.00,,,0.00,119.000000,,2013-08-31 21:22:00,
2013-08-31 13:54:00,56.0,51.0,-100.00,ESE,106,0.0,7.0,84,0.01,,,0.01,148.000000,,2013-08-31 21:54:00,
2013-08-31 14:04:00,56.0,51.0,-100.00,ESE,106,0.0,7.0,84,0.01,,,0.01,148.000000,,2013-08-31 22:04:00,
2013-08-31 14:13:00,56.0,51.0,-100.00,ESE,106,0.0,7.0,84,0.01,,,0.01,148.000000,,2013-08-31 22:13:00,
2013-08-31 14:23:00,56.0,51.0,-100.00,ESE,106,0.0,7.0,84,0.01,,,0.01,148.000000,,2013-08-31 22:23:00,
2013-08-31 14:53:00,57.0,52.0,-100.00,ESE,111,1.0,5.0,83,0.00,,,0.01,145.000000,,2013-08-31 22:53:00,
2013-08-31 15:03:00,57.0,52.0,-100.00,ESE,111,1.0,5.0,83,0.00,,,0.01,145.000000,,2013-08-31 23:03:00,
2013-08-31 15:12:00,57.0,52.0,-100.00,ESE,111,1.0,5.0,83,0.00,,,0.01,145.000000,,2013-08-31 23:12:00,
2013-08-31 15:22:00,57.0,52.0,-100.00,ESE,111,1.0,5.0,83,0.00,,,0.01,145.000000,,2013-08-31 23:22:00,
2013-08-31 15:52:00,58.0,51.0,-100.00,SSW,201,2.0,5.0,78,0.00,,,0.01,181.000000,,2013-08-31 23:52:00,
2013-08-31 16:01:00,58.0,51.0,-100.00,SSW,201,2.0,5.0,78,0.00,,,0.01,181.000000,,2013-09-01 00:01:00,
2013-08-31 16:11:00,58.0,51.0,-100.00,SSW,201,2.0,5.0,78,0.00,,,0.01,181.000000,,2013-09-01 00:11:00,
2013-08-31 16:21:00,58.0,51.0,-100.00,SSW,201,2.0,5.0,78,0.00,,,0.01,181.000000,,2013-09-01 00:21:00,
2013-08-31 16:52:00,58.0,50.0,-100.00,SSW,211,4.0,7.0,76,0.00,,,0.01,175.000000,,2013-09-01 00:52:00,
2013-08-31 17:02:00,58.0,50.0,-100.00,SSW,211,4.0,7.0,76,0.00,,,0.01,175.000000,,2013-09-01 01:02:00,
2013-08-31 17:11:00,58.0,50.0,-100.00,SSW,211,4.0,7.0,76,0.00,,,0.01,175.000000,,2013-09-01 01:11:00,
2013-08-31 17:21:00,58.0,50.0,-100.00,SSW,211,4.0,7.0,76,0.00,,,0.01,175.000000,,2013-09-01 01:21:00,
2013-08-31 17:52:00,58.0,50.0,-100.00,SW,217,3.0,8.0,75,0.00,,,0.01,203.000000,,2013-09-01 01:52:00,
2013-08-31 18:02:00,58.0,50.0,-100.00,SW,217,3.0,8.0,75,0.00,,,0.01,203.000000,,2013-09-01 02:02:00,
2013-08-31 18:12:00,58.0,50.0,-100.00,SW,217,3.0,8.0,75,0.00,,,0.01,203.000000,,2013-09-01 02:12:00,
2013-08-31 18:22:00,58.0,50.0,-100.00,SW,217,3.0,8.0,75,0.00,,,0.01,203.000000,,2013-09-01 02:22:00,
2013-08-31 18:53:00,58.0,51.0,-100.00,SSW,208,4.0,8.0,78,0.00,,,0.01,145.000000,,2013-09-01 02:53:00,
2013-08-31 19:02:00,58.0,51.0,-100.00,SSW,208,4.0,8.0,78,0.00,,,0.01,145.000000,,2013-09-01 03:02:00,
2013-08-31 19:12:00,58.0,51.0,-100.00,SSW,208,4.0,8.0,78,0.00,,,0.01,145.000000,,2013-09-01 03:12:00,
2013-08-31 19:22:00,58.0,51.0,-100.00,SSW,208,4.0,8.0,78,0.00,,,0.01,145.000000,,2013-09-01 03:22:00,
2013-08-31 19:54:00,57.0,52.0,-100.00,SW,222,2.0,8.0,82,0.00,,,0.01,93.000000,,2013-09-01 03:54:00,
2013-08-31 20:03:00,-999.0,-99.9,-100.00,SW,222,2.0,8.0,-999,-99.99,,,-99.99,93.000000,,2013-09-01 04:03:00,
2013-08-31 20:14:00,57.0,52.0,-100.00,SW,222,2.0,8.0,82,0.00,,,0.01,93.000000,,2013-09-01 04:14:00,
2013-08-31 20:24:00,57.0,52.0,-100.00,SW,222,2.0,8.0,82,0.00,,,0.01,93.000000,,2013-09-01 04:24:00,
2013-08-31 20:54:00,56.0,52.0,-100.00,WSW,240,1.0,5.0,86,0.00,,,0.01,38.000000,,2013-09-01 04:54:00,
2013-08-31 21:03:00,56.0,52.0,-100.00,WSW,240,1.0,5.0,86,0.00,,,0.01,38.000000,,2013-09-01 05:03:00,
2013-08-31 21:12:00,56.0,52.0,-100.00,WSW,240,1.0,5.0,86,0.00,,,0.01,38.000000,,2013-09-01 05:12:00,
2013-08-31 21:22:00,56.0,52.0,-100.00,WSW,240,1.0,5.0,86,0.00,,,0.01,38.000000,,2013-09-01 05:22:00,
2013-08-31 21:52:00,54.0,51.0,-100.00,South,172,0.0,2.0,91,0.00,,,0.01,5.000000,,2013-09-01 05:52:00,
2013-08-31 22:02:00,54.0,51.0,-100.00,South,172,0.0,2.0,91,0.00,,,0.01,5.000000,,2013-09-01 06:02:00,
2013-08-31 22:12:00,54.0,51.0,-100.00,South,172,0.0,2.0,91,0.00,,,0.01,5.000000,,2013-09-01 06:12:00,
2013-08-31 22:22:00,54.0,51.0,-100.00,South,172,0.0,2.0,91,0.00,,,0.01,5.000000,,2013-09-01 06:22:00,
2013-08-31 22:52:00,53.0,51.0,-100.00,ESE,116,1.0,3.0,92,0.00,,,0.01,0.000000,,2013-09-01 06:52:00,
2013-08-31 23:02:00,53.0,51.0,-100.00,ESE,116,1.0,3.0,92,0.00,,,0.01,0.000000,,2013-09-01 07:02:00,
2013-08-31 23:12:00,53.0,51.0,-100.00,ESE,116,1.0,3.0,92,0.00,,,0.01,0.000000,,2013-09-01 07:12:00,
2013-08-31 23:22:00,53.0,51.0,-100.00,ESE,116,1.0,3.0,92,0.00,,,0.01,0.000000,,2013-09-01 07:22:00,
2013-08-31 23:52:00,53.0,49.0,-100.00,SSE,167,1.0,4.0,85,0.00,,,0.01,0.000000,,2013-09-01 07:52:00,